LPE0021 SEQM-SEGU

Flight info

Callsign LPE0021
Flight time 0h 32m
Altitude 24000
Route TEMOX3A TEMOX TEMOX2
Aircraft A320/M-SDE3FGHIRWY/LB1

Departure

Time 2026-04-27 00:17
Airport Mariscal Sucre International Airport (SEQM)

Arrival

Time 2026-04-27 00:49
Airport José Joaquín de Olmedo International Airport (SEGU)
Time Latitude Longitude Altitude Speed Heading
2026-04-26 23:52 -0.12462 -78.35722 7889 ft 0 kts 268°
2026-04-27 00:08 -0.12462 -78.35714 7890 ft 2 kts 268°
2026-04-27 00:08 -0.12458 -78.35697 7890 ft 3 kts 218°
2026-04-27 00:08 -0.12453 -78.35694 7890 ft 0 kts 184°
2026-04-27 00:11 -0.12452 -78.35694 7890 ft 0 kts 184°
2026-04-27 00:11 -0.12574 -78.35691 7897 ft 16 kts 178°
2026-04-27 00:11 -0.12667 -78.35663 7902 ft 12 kts 149°
2026-04-27 00:12 -0.12715 -78.35605 7905 ft 9 kts 157°
2026-04-27 00:12 -0.12773 -78.35598 7908 ft 6 kts 179°
2026-04-27 00:12 -0.12798 -78.35598 7910 ft 0 kts 180°
2026-04-27 00:12 -0.12868 -78.35596 7915 ft 30 kts 177°
2026-04-27 00:13 -0.13073 -78.35586 7927 ft 26 kts 178°
2026-04-27 00:13 -0.13240 -78.35579 7937 ft 20 kts 177°
2026-04-27 00:13 -0.13366 -78.35574 7945 ft 15 kts 177°
2026-04-27 00:13 -0.13461 -78.35570 7951 ft 11 kts 178°
2026-04-27 00:14 -0.13547 -78.35567 7957 ft 15 kts 178°
2026-04-27 00:14 -0.13669 -78.35561 7962 ft 17 kts 176°
2026-04-27 00:14 -0.13845 -78.35553 7972 ft 33 kts 177°
2026-04-27 00:14 -0.14058 -78.35545 7983 ft 27 kts 177°
2026-04-27 00:15 -0.14221 -78.35527 7992 ft 19 kts 153°
2026-04-27 00:15 -0.14252 -78.35490 7995 ft 2 kts 105°
2026-04-27 00:15 -0.14254 -78.35478 7995 ft 4 kts 101°
2026-04-27 00:15 -0.14250 -78.35396 7997 ft 12 kts 75°
2026-04-27 00:16 -0.14185 -78.35364 7995 ft 5 kts 342°
2026-04-27 00:16 -0.14178 -78.35365 7994 ft 0 kts
2026-04-27 00:17 -0.13923 -78.35377 7982 ft 77 kts 358°
2026-04-27 00:17 -0.13124 -78.35410 7935 ft 149 kts 357°
2026-04-27 00:17 -0.11895 -78.35475 8149 ft 185 kts 357°
2026-04-27 00:17 -0.10641 -78.35493 8953 ft 176 kts
2026-04-27 00:18 -0.09452 -78.35449 9465 ft 176 kts 360°
2026-04-27 00:18 -0.08155 -78.35490 9656 ft 197 kts 357°
2026-04-27 00:18 -0.06741 -78.35590 10048 ft 206 kts 353°
2026-04-27 00:18 -0.05305 -78.35800 10616 ft 207 kts 341°
2026-04-27 00:19 -0.04018 -78.36446 11056 ft 215 kts 328°
2026-04-27 00:19 -0.02825 -78.37444 11337 ft 233 kts 304°
2026-04-27 00:19 -0.02316 -78.39017 11621 ft 251 kts 271°
2026-04-27 00:19 -0.02419 -78.40825 11943 ft 267 kts 266°
2026-04-27 00:20 -0.02596 -78.42707 12238 ft 284 kts 264°
2026-04-27 00:20 -0.02806 -78.44744 12535 ft 300 kts 264°
2026-04-27 00:20 -0.03029 -78.46854 12816 ft 316 kts 264°
2026-04-27 00:20 -0.03266 -78.49106 13092 ft 332 kts 264°
2026-04-27 00:21 -0.03510 -78.51424 13393 ft 344 kts 264°
2026-04-27 00:21 -0.03761 -78.53832 13871 ft 350 kts 264°
2026-04-27 00:21 -0.04013 -78.56249 14404 ft 352 kts 264°
2026-04-27 00:21 -0.04451 -78.58647 14870 ft 356 kts 251°
2026-04-27 00:22 -0.05597 -78.60849 15358 ft 358 kts 232°
2026-04-27 00:22 -0.07287 -78.62676 15861 ft 359 kts 224°
2026-04-27 00:22 -0.09084 -78.64409 16342 ft 362 kts 223°
2026-04-27 00:22 -0.10910 -78.66156 16791 ft 365 kts 223°
2026-04-27 00:23 -0.12754 -78.67930 17259 ft 367 kts 223°
2026-04-27 00:23 -0.14585 -78.69704 17691 ft 370 kts 223°
2026-04-27 00:23 -0.16446 -78.71516 18141 ft 372 kts 223°
2026-04-27 00:23 -0.18307 -78.73332 18585 ft 374 kts 223°
2026-04-27 00:24 -0.20168 -78.75150 19034 ft 376 kts 223°
2026-04-27 00:24 -0.22042 -78.76984 19482 ft 377 kts 223°
2026-04-27 00:24 -0.23916 -78.78819 19894 ft 379 kts 223°
2026-04-27 00:24 -0.25800 -78.80664 20310 ft 381 kts 223°
2026-04-27 00:25 -0.27706 -78.82528 20717 ft 383 kts 223°
2026-04-27 00:25 -0.29608 -78.84392 21106 ft 386 kts 224°
2026-04-27 00:25 -0.31544 -78.86288 21503 ft 388 kts 223°
2026-04-27 00:25 -0.33464 -78.88169 21830 ft 392 kts 224°
2026-04-27 00:26 -0.35444 -78.90110 22014 ft 400 kts 223°
2026-04-27 00:26 -0.37446 -78.92070 22327 ft 403 kts 224°
2026-04-27 00:26 -0.39447 -78.94029 22691 ft 405 kts 224°
2026-04-27 00:26 -0.41451 -78.95991 23048 ft 407 kts 224°
2026-04-27 00:27 -0.43490 -78.97991 23380 ft 409 kts 224°
2026-04-27 00:27 -0.45536 -78.99995 23700 ft 412 kts 223°
2026-04-27 00:27 -0.47589 -79.02009 24025 ft 414 kts 223°
2026-04-27 00:27 -0.49640 -79.04015 24246 ft 416 kts 224°
2026-04-27 00:28 -0.51712 -79.06046 24259 ft 416 kts 224°
2026-04-27 00:28 -0.53778 -79.08073 24266 ft 416 kts 223°
2026-04-27 00:28 -0.55851 -79.10101 24261 ft 417 kts 222°
2026-04-27 00:28 -0.58069 -79.11977 24243 ft 416 kts 216°
2026-04-27 00:29 -0.60481 -79.13569 24231 ft 415 kts 208°
2026-04-27 00:29 -0.63052 -79.14884 24215 ft 415 kts 204°
2026-04-27 00:29 -0.65699 -79.16118 24216 ft 415 kts 203°
2026-04-27 00:29 -0.68337 -79.17326 24205 ft 415 kts 203°
2026-04-27 00:30 -0.70961 -79.18532 24186 ft 415 kts 204°
2026-04-27 00:30 -0.73617 -79.19758 24184 ft 416 kts 203°
2026-04-27 00:30 -0.76245 -79.20974 24179 ft 416 kts 204°
2026-04-27 00:30 -0.78898 -79.22205 24170 ft 416 kts 204°
2026-04-27 00:31 -0.81521 -79.23421 23745 ft 420 kts 204°
2026-04-27 00:31 -0.84196 -79.24663 23086 ft 420 kts 204°
2026-04-27 00:31 -0.86812 -79.25882 22577 ft 415 kts 203°
2026-04-27 00:31 -0.89443 -79.27104 22085 ft 410 kts 204°
2026-04-27 00:32 -0.91997 -79.28293 21607 ft 406 kts 203°
2026-04-27 00:32 -0.94573 -79.29490 21094 ft 403 kts 203°
2026-04-27 00:32 -0.97096 -79.30663 20596 ft 400 kts 203°
2026-04-27 00:32 -0.99605 -79.31831 20083 ft 398 kts 203°
2026-04-27 00:33 -1.02134 -79.33006 19572 ft 395 kts 203°
2026-04-27 00:33 -1.04638 -79.34170 19056 ft 394 kts 203°
2026-04-27 00:33 -1.07106 -79.35317 18544 ft 392 kts 203°
2026-04-27 00:33 -1.09591 -79.36472 18064 ft 390 kts 203°
2026-04-27 00:34 -1.12064 -79.37621 17568 ft 388 kts 203°
2026-04-27 00:34 -1.14496 -79.38752 17053 ft 387 kts 203°
2026-04-27 00:34 -1.16956 -79.39898 16536 ft 386 kts 203°
2026-04-27 00:34 -1.19377 -79.41022 16061 ft 384 kts 204°
2026-04-27 00:35 -1.21820 -79.42158 15561 ft 382 kts 204°
2026-04-27 00:35 -1.24250 -79.43288 15043 ft 382 kts 204°
2026-04-27 00:35 -1.26624 -79.44391 14567 ft 380 kts 204°
2026-04-27 00:35 -1.29030 -79.45510 14072 ft 378 kts 204°
2026-04-27 00:36 -1.31404 -79.46615 13599 ft 374 kts 204°
2026-04-27 00:36 -1.33777 -79.47720 13152 ft 370 kts 204°
2026-04-27 00:36 -1.36077 -79.48792 12754 ft 366 kts 205°
2026-04-27 00:36 -1.38391 -79.49870 12328 ft 364 kts 205°
2026-04-27 00:37 -1.40704 -79.50948 11779 ft 363 kts 205°
2026-04-27 00:37 -1.42989 -79.52010 11306 ft 360 kts 205°
2026-04-27 00:37 -1.45235 -79.53055 10874 ft 356 kts 205°
2026-04-27 00:37 -1.47477 -79.54098 10490 ft 351 kts 205°
2026-04-27 00:38 -1.49675 -79.55120 10254 ft 339 kts 205°
2026-04-27 00:38 -1.51785 -79.56102 10153 ft 323 kts 205°
2026-04-27 00:38 -1.53776 -79.57030 10136 ft 307 kts 205°
2026-04-27 00:38 -1.55693 -79.57922 9858 ft 304 kts 205°
2026-04-27 00:39 -1.57635 -79.58824 9403 ft 306 kts 205°
2026-04-27 00:39 -1.59554 -79.59717 8998 ft 305 kts 205°
2026-04-27 00:39 -1.61486 -79.60613 8631 ft 303 kts 205°
2026-04-27 00:39 -1.63406 -79.61502 8274 ft 301 kts 205°
2026-04-27 00:40 -1.65302 -79.62382 7920 ft 298 kts 205°
2026-04-27 00:40 -1.67166 -79.63247 7592 ft 296 kts 205°
2026-04-27 00:40 -1.69040 -79.64118 7258 ft 296 kts 205°
2026-04-27 00:40 -1.70925 -79.64995 6852 ft 295 kts 205°
2026-04-27 00:41 -1.72786 -79.65861 6509 ft 292 kts 205°
2026-04-27 00:41 -1.74611 -79.66710 6181 ft 291 kts 205°
2026-04-27 00:41 -1.76448 -79.67564 5816 ft 290 kts 205°
2026-04-27 00:41 -1.78280 -79.68415 5460 ft 288 kts 205°
2026-04-27 00:42 -1.80102 -79.69262 5140 ft 286 kts 205°
2026-04-27 00:42 -1.81907 -79.70101 4795 ft 284 kts 205°
2026-04-27 00:42 -1.83696 -79.70934 4470 ft 281 kts 205°
2026-04-27 00:42 -1.85476 -79.71762 4141 ft 279 kts 205°
2026-04-27 00:43 -1.87240 -79.72583 3809 ft 278 kts 204°
2026-04-27 00:43 -1.88981 -79.73383 3563 ft 271 kts 202°
2026-04-27 00:43 -1.90692 -79.74078 3556 ft 256 kts 203°
2026-04-27 00:43 -1.92259 -79.74842 3552 ft 242 kts 207°
2026-04-27 00:44 -1.93703 -79.75644 3510 ft 237 kts 209°
2026-04-27 00:44 -1.95140 -79.76474 3354 ft 236 kts 210°
2026-04-27 00:44 -1.96569 -79.77305 3255 ft 236 kts 210°
2026-04-27 00:44 -1.97973 -79.78120 3147 ft 225 kts 210°
2026-04-27 00:45 -1.99266 -79.78869 3080 ft 202 kts 209°
2026-04-27 00:45 -2.00434 -79.79544 3048 ft 183 kts 209°
2026-04-27 00:45 -2.01490 -79.80153 2864 ft 171 kts 209°
2026-04-27 00:45 -2.02501 -79.80735 2662 ft 163 kts 209°
2026-04-27 00:46 -2.03495 -79.81308 2458 ft 162 kts 208°
2026-04-27 00:46 -2.04465 -79.81867 2254 ft 161 kts 208°
2026-04-27 00:46 -2.05439 -79.82428 2051 ft 160 kts 209°
2026-04-27 00:46 -2.06413 -79.82989 1843 ft 159 kts 208°
2026-04-27 00:47 -2.07366 -79.83539 1613 ft 164 kts 209°
2026-04-27 00:47 -2.08350 -79.84094 1511 ft 166 kts 209°
2026-04-27 00:47 -2.09320 -79.84654 1308 ft 158 kts 210°
2026-04-27 00:47 -2.10269 -79.85207 1044 ft 167 kts 210°
2026-04-27 00:48 -2.11292 -79.85809 895 ft 164 kts 210°
2026-04-27 00:48 -2.12290 -79.86375 593 ft 164 kts 208°
2026-04-27 00:48 -2.13281 -79.86940 443 ft 160 kts 211°
2026-04-27 00:48 -2.14229 -79.87489 202 ft 152 kts 212°
2026-04-27 00:49 -2.15118 -79.88010 30 ft 139 kts 212°
2026-04-27 00:49 -2.15737 -79.88361 32 ft 67 kts 207°
2026-04-27 00:49 -2.16128 -79.88587 34 ft 63 kts 209°
2026-04-27 00:49 -2.16411 -79.88751 34 ft 27 kts 210°
2026-04-27 00:50 -2.16576 -79.88847 32 ft 27 kts 209°
2026-04-27 00:50 -2.16720 -79.88951 31 ft 0 kts 265°
2026-04-27 00:50 -2.16718 -79.88973 31 ft 4 kts 281°
2026-04-27 00:51 -2.16702 -79.89001 31 ft 5 kts 324°
2026-04-27 00:51 -2.16666 -79.89007 32 ft 5 kts 13°
2026-04-27 00:51 -2.16652 -79.89001 32 ft 0 kts 28°
2026-04-27 00:52 -2.16638 -79.88993 32 ft 4 kts 31°
2026-04-27 00:52 -2.16609 -79.88975 32 ft 4 kts 30°
2026-04-27 00:53 -2.16576 -79.88957 32 ft 5 kts 30°
2026-04-27 00:53 -2.16540 -79.88936 32 ft 6 kts 30°
2026-04-27 00:53 -2.16499 -79.88912 33 ft 7 kts 30°
2026-04-27 00:53 -2.16455 -79.88886 33 ft 7 kts 29°
2026-04-27 00:54 -2.16404 -79.88858 33 ft 8 kts 30°
2026-04-27 00:54 -2.16350 -79.88827 34 ft 9 kts 30°
2026-04-27 00:54 -2.16291 -79.88792 34 ft 10 kts 31°
2026-04-27 00:54 -2.16225 -79.88753 34 ft 11 kts 31°
2026-04-27 00:55 -2.16155 -79.88713 34 ft 12 kts 30°
2026-04-27 00:55 -2.16065 -79.88661 34 ft 18 kts 30°
2026-04-27 00:55 -2.15951 -79.88596 34 ft 19 kts 30°
2026-04-27 00:55 -2.15833 -79.88529 33 ft 19 kts 29°
2026-04-27 00:56 -2.15712 -79.88460 32 ft 19 kts 30°
2026-04-27 00:56 -2.15595 -79.88391 31 ft 13 kts 30°
2026-04-27 00:56 -2.15553 -79.88393 31 ft 5 kts 310°
2026-04-27 00:56 -2.15530 -79.88426 31 ft 6 kts 301°
2026-04-27 00:57 -2.15517 -79.88448 31 ft 0 kts 300°